Location: Ergnies
(50.0854°N, 2.0375°E)
Time: 09:06:44
(UTC+00:00)

NOSS 8 (H) - Pass Details

Date: 14 January 2026
Orbit: 355 x 1516 km, 63.3° (Epoch: 18 February)

Event Time Altitude Azimuth Distance (km) Brightness Sun altitude
Exits shadow 06:33:41 18° 302° (WNW) 1,001 5.5 -11.1°
Maximum altitude 06:35:38 50° 231° (SW) 513 4.5 -10.8°
Drops below altitude 10° 06:38:56 10° 154° (SSE) 1,588 7.9 -10.3°
Sets 06:41:19 0° 150° (SSE) 2,607 9.2 -10.0°
